EA6AMI-5 Weather Reports


time (UTC)temp
F
wind
direction
speed
knots
gust
knots
rain 1hr
in
rain 24hr
in
rain mn
in
humidity
%
barometer
mb
20260504150903 66 192 6.1 13.9 0.00 0.01 0.01 82 1012.5
20260504140903 65 209 5.2 9.6 0.00 0.01 0.01 83 1012.7
20260504081803 66 135 3.5 7.0 0.00 0.07 0.00 83 1013.6
20260504080903 67 128 4.3 7.8 0.00 0.11 0.00 82 1013.5
20260504050003 62 150 2.6 5.2 0.00 0.12 0.00 89 1013.3
20260504045407 62 157 2.6 4.3 0.00 0.12 0.00 89 1013.3
20260504044504 62 161 2.6 5.2 0.00 0.12 0.00 88 1013.2
20260504043603 63 165 2.6 5.2 0.00 0.12 0.00 87 1013.2
20260504042703 62 174 2.6 4.3 0.00 0.12 0.00 87 1013.0
20260504041803 62 196 1.7 3.5 0.00 0.12 0.00 88 1013.2
20260504040903 62 169 0.9 2.6 0.00 0.12 0.00 88 1013.2
20260504040003 62 73 1.7 5.2 0.00 0.12 0.00 89 1013.3
20260504035403 62 103 2.6 5.2 0.00 0.12 0.00 89 1013.5
20260504034503 62 132 2.6 3.5 0.00 0.12 0.00 89 1013.5
20260504033603 62 166 1.7 3.5 0.00 0.12 0.00 89 1013.8
20260504032703 62 181 1.7 3.5 0.00 0.12 0.00 89 1013.8
20260504031803 61 180 1.7 3.5 0.00 0.12 0.00 90 1014.0
20260504030903 61 171 1.7 3.5 0.00 0.12 0.00 90 1014.0
20260504030003 62 153 1.7 3.5 0.00 0.12 0.00 90 1014.0
20260504025403 62 159 1.7 4.3 0.00 0.12 0.00 89 1013.9
20260504024503 62 150 1.7 4.3 0.00 0.12 0.00 89 1013.9
20260504023603 62 152 1.7 3.5 0.00 0.12 0.00 88 1013.8
20260504022703 62 164 1.7 4.3 0.00 0.12 0.00 88 1013.8
20260504021803 62 44 1.7 4.3 0.00 0.12 0.00 88 1014.0
20260504020903 62 184 1.7 6.1 0.00 0.12 0.00 88 1014.0
20260504020004 62 188 1.7 4.3 0.00 0.12 0.00 88 1014.0
20260504015403 62 172 1.7 4.3 0.00 0.12 0.00 88 1014.0
20260504014503 62 18 0.9 4.3 0.00 0.12 0.00 88 1014.2
20260504013603 62 13 0.9 3.5 0.00 0.12 0.00 88 1014.4
20260504012703 62 46 0.9 3.5 0.00 0.12 0.00 88 1014.4
20260504011804 62 185 0.9 2.6 0.00 0.11 0.00 87 1014.4
20260504010903 62 174 0.9 3.5 0.00 0.11 0.00 87 1014.4
20260504010003 62 162 3.5 6.1 0.00 0.11 0.00 86 1014.6
20260504005403 62 159 2.6 6.1 0.00 0.11 0.00 85 1014.8
20260504004503 62 164 2.6 4.3 0.00 0.11 0.00 84 1014.8
20260504003603 63 190 1.7 4.3 0.00 0.11 0.00 83 1014.8
20260504002703 63 193 2.6 5.2 0.00 0.11 0.00 83 1014.7
20260504001803 63 180 3.5 6.1 0.00 0.11 0.00 82 1014.7
20260504000903 63 179 1.7 5.2 0.00 0.11 0.00 82 1014.7
20260504000004 62 209 2.6 4.3 0.00 0.11 0.00 83 1014.7
20260503235403 62 164 2.6 4.3 0.00 0.11 0.00 84 1014.6
20260503234503 62 164 2.6 3.5 0.00 0.11 0.00 85 1014.7
20260503233603 62 148 2.6 3.5 0.00 0.11 0.00 86 1014.7
20260503232703 62 142 2.6 3.5 0.00 0.11 0.00 88 1014.8
20260503231803 62 126 1.7 3.5 0.00 0.11 0.00 88 1014.7
20260503230903 62 66 1.7 2.6 0.00 0.11 0.00 88 1014.6
20260503230003 62 112 2.6 3.5 0.00 0.11 0.00 87 1014.8
20260503225403 62 132 2.6 5.2 0.00 0.11 0.00 87 1014.7
20260503224503 62 90 1.7 4.3 0.00 0.11 0.00 87 1014.7
20260503223604 62 79 1.7 3.5 0.00 0.11 0.00 87 1014.7
20260503222703 62 133 2.6 3.5 0.00 0.11 0.00 87 1014.6
20260503221803 62 95 0.9 2.6 0.00 0.11 0.00 87 1014.6
20260503220903 62 123 0.9 1.7 0.00 0.11 0.00 87 1014.5
20260503220003 62 135 1.7 3.5 0.00 0.11 0.00 86 1014.3
20260503215403 62 111 1.7 3.5 0.00 0.11 0.11 86 1014.5
20260503214503 62 79 0.9 2.6 0.00 0.11 0.11 85 1014.3
20260503213604 62 349 0.0 1.7 0.00 0.11 0.11 85 1014.4
20260503212703 63 212 0.9 2.6 0.00 0.11 0.11 85 1014.6
20260503211803 63 92 0.9 1.7 0.00 0.11 0.11 85 1014.4
20260503210903 63 139 1.7 2.6 0.00 0.11 0.11 85 1014.3
20260503210003 63 126 1.7 2.6 0.00 0.11 0.11 84 1014.2
20260503205403 63 102 0.9 2.6 0.00 0.11 0.11 84 1014.3
20260503204503 63 54 1.7 2.6 0.00 0.11 0.11 84 1014.1
20260503203603 64 29 1.7 2.6 0.00 0.11 0.11 84 1014.2
20260503202703 64 36 0.9 3.5 0.00 0.11 0.11 85 1013.9
20260503201804 64 163 1.7 3.5 0.00 0.11 0.11 84 1014.2
20260503200903 64 149 1.7 3.5 0.00 0.11 0.11 84 1014.5
20260503200004 64 101 0.9 1.7 0.00 0.11 0.11 83 1014.3
20260503195403 64 74 0.9 2.6 0.00 0.11 0.11 83 1013.9
20260503194504 64 48 1.7 3.5 0.00 0.11 0.11 83 1013.8
20260503193603 65 78 1.7 3.5 0.00 0.11 0.11 82 1014.1
20260503192704 65 77 0.9 1.7 0.00 0.11 0.11 81 1014.1
20260503191803 65 72 1.7 2.6 0.00 0.11 0.11 81 1014.1
20260503190903 65 44 2.6 3.5 0.00 0.11 0.11 80 1014.1
20260503190004 65 53 1.7 2.6 0.00 0.11 0.11 79 1014.1
20260503185403 65 75 0.9 2.6 0.00 0.11 0.11 78 1014.4
20260503184503 65 101 0.9 1.7 0.00 0.11 0.11 77 1014.1
20260503183603 65 85 0.9 1.7 0.00 0.11 0.11 77 1014.0
20260503182704 65 127 0.9 2.6 0.00 0.11 0.11 77 1014.2
20260503181803 66 149 2.6 3.5 0.00 0.11 0.11 77 1014.3
20260503180903 66 149 1.7 3.5 0.00 0.11 0.11 76 1014.1
20260503180004 66 134 2.6 3.5 0.00 0.11 0.11 75 1014.1
20260503175403 67 134 1.7 3.5 0.00 0.11 0.11 75 1014.1
20260503174503 67 114 1.7 3.5 0.00 0.11 0.11 75 1014.0
20260503173603 67 116 2.6 4.3 0.00 0.11 0.11 74 1013.9
20260503172703 67 115 2.6 4.3 0.00 0.11 0.11 74 1013.9
20260503171803 67 91 2.6 4.3 0.00 0.11 0.11 74 1013.8
20260503170903 67 78 3.5 6.1 0.00 0.11 0.11 73 1013.8